AFZ22P EICK-EICK

Flight info

Callsign AFZ22P
Flight time N/A
Altitude 3000
Route 2 CIRCUIT THEN DCT EIWF
Aircraft C172/L-SGDY/C

Departure

Time 2026-05-01 13:41
Airport Cork International Airport (EICK)

Arrival

Time N/A
Airport Cork International Airport (EICK)
Time Latitude Longitude Altitude Speed Heading
2026-05-01 13:37 51.83823 -8.48589 454 ft 0 kts 284°
2026-05-01 13:37 51.83822 -8.48597 455 ft 4 kts 259°
2026-05-01 13:38 51.83801 -8.48923 463 ft 18 kts 339°
2026-05-01 13:38 51.83973 -8.49015 467 ft 35 kts 340°
2026-05-01 13:38 51.84189 -8.49114 474 ft 18 kts 345°
2026-05-01 13:39 51.84180 -8.49141 473 ft 0 kts 160°
2026-05-01 13:40 51.84159 -8.49128 473 ft 19 kts 159°
2026-05-01 13:40 51.83865 -8.48957 471 ft 66 kts 156°
2026-05-01 13:40 51.83433 -8.48677 511 ft 67 kts 165°
2026-05-01 13:40 51.83005 -8.48444 781 ft 63 kts 161°
2026-05-01 13:41 51.82550 -8.48174 990 ft 76 kts 162°
2026-05-01 13:41 51.82157 -8.47667 1326 ft 81 kts 117°
2026-05-01 13:41 51.82276 -8.46663 1537 ft 100 kts 78°
2026-05-01 13:41 51.82567 -8.45603 1576 ft 106 kts 73°
2026-05-01 13:42 51.82912 -8.44509 1566 ft 111 kts 71°
2026-05-01 13:42 51.83374 -8.43490 1569 ft 117 kts 30°
2026-05-01 13:42 51.84159 -8.43512 1507 ft 115 kts 339°
2026-05-01 13:42 51.84936 -8.43872 1509 ft 113 kts 346°
2026-05-01 13:43 51.85733 -8.44065 1470 ft 117 kts 351°
2026-05-01 13:43 51.86540 -8.44205 1493 ft 115 kts 352°
2026-05-01 13:43 51.87334 -8.44340 1469 ft 118 kts 354°
2026-05-01 13:43 51.88166 -8.44479 1508 ft 118 kts 334°
2026-05-01 13:44 51.88556 -8.45439 1532 ft 99 kts 258°
2026-05-01 13:44 51.88490 -8.46514 1597 ft 95 kts 253°
2026-05-01 13:44 51.88418 -8.47512 1578 ft 90 kts 254°
2026-05-01 13:44 51.88360 -8.48510 1561 ft 84 kts 253°
2026-05-01 13:45 51.88325 -8.49486 1394 ft 87 kts 259°
2026-05-01 13:45 51.88245 -8.50432 1212 ft 86 kts 249°
2026-05-01 13:45 51.87876 -8.51037 1042 ft 73 kts 188°
2026-05-01 13:45 51.87393 -8.51058 930 ft 68 kts 168°
2026-05-01 13:46 51.86955 -8.50791 803 ft 68 kts 158°
2026-05-01 13:46 51.86517 -8.50511 724 ft 69 kts 158°
2026-05-01 13:46 51.86063 -8.50236 669 ft 71 kts 164°
2026-05-01 13:46 51.85593 -8.49977 584 ft 71 kts 161°
2026-05-01 13:47 51.85128 -8.49692 511 ft 73 kts 162°
2026-05-01 13:47 51.84812 -8.49519 493 ft 65 kts 164°
2026-05-01 13:47 51.84437 -8.49309 481 ft 50 kts 158°
2026-05-01 13:47 51.84072 -8.49025 619 ft 62 kts 155°
2026-05-01 13:48 51.83689 -8.48793 859 ft 64 kts 160°
2026-05-01 13:48 51.83237 -8.48572 1137 ft 65 kts 156°
2026-05-01 13:48 51.82995 -8.47855 1319 ft 81 kts 112°
2026-05-01 13:48 51.82812 -8.47038 1599 ft 76 kts 119°
2026-05-01 13:49 51.82667 -8.46210 1867 ft 78 kts 119°
2026-05-01 13:49 51.82526 -8.45358 2097 ft 84 kts 117°
2026-05-01 13:49 51.82324 -8.44321 2111 ft 106 kts 119°
2026-05-01 13:49 51.82078 -8.43167 2105 ft 103 kts 119°
2026-05-01 13:50 51.81873 -8.42130 2099 ft 94 kts 119°
2026-05-01 13:50 51.81668 -8.41121 2035 ft 98 kts 119°
2026-05-01 13:50 51.81621 -8.40012 1991 ft 108 kts 76°
2026-05-01 13:50 51.81978 -8.38947 1984 ft 105 kts 74°
2026-05-01 13:51 51.82297 -8.37893 1986 ft 107 kts 73°
2026-05-01 13:51 51.82634 -8.36790 1992 ft 109 kts 72°
2026-05-01 13:51 51.82961 -8.35684 1992 ft 111 kts 72°
2026-05-01 13:51 51.83290 -8.34569 1990 ft 108 kts 73°
2026-05-01 13:52 51.83619 -8.33493 1993 ft 107 kts 71°
2026-05-01 13:52 51.83945 -8.32412 1987 ft 106 kts 73°
2026-05-01 13:52 51.84276 -8.31332 1983 ft 107 kts 72°
2026-05-01 13:52 51.84590 -8.30245 1987 ft 106 kts 74°
2026-05-01 13:53 51.84917 -8.29172 1990 ft 106 kts 72°
2026-05-01 13:53 51.85584 -8.26940 1994 ft 114 kts 73°
2026-05-01 13:53 51.85909 -8.25792 2001 ft 114 kts 73°
2026-05-01 13:54 51.86245 -8.24625 1998 ft 114 kts 73°
2026-05-01 13:54 51.86589 -8.23483 1997 ft 113 kts 72°
2026-05-01 13:54 51.86930 -8.22340 1998 ft 113 kts 72°
2026-05-01 13:54 51.87267 -8.21174 1999 ft 115 kts 73°
2026-05-01 13:55 51.87603 -8.19992 1996 ft 115 kts 72°
2026-05-01 13:55 51.87936 -8.18841 1996 ft 111 kts 73°
2026-05-01 13:55 51.88270 -8.17725 1986 ft 109 kts 72°
2026-05-01 13:55 51.88583 -8.16671 2086 ft 99 kts 74°
2026-05-01 13:56 51.88886 -8.15711 2179 ft 91 kts 71°
2026-05-01 13:56 51.89188 -8.14737 2308 ft 104 kts 72°
2026-05-01 13:56 51.89519 -8.13626 2467 ft 113 kts 71°
2026-05-01 13:56 51.89844 -8.12454 2613 ft 115 kts 73°
2026-05-01 13:57 51.90176 -8.11278 2757 ft 116 kts 72°
2026-05-01 13:57 51.90509 -8.10106 2896 ft 117 kts 72°
2026-05-01 13:57 51.90841 -8.08893 3022 ft 119 kts 72°
2026-05-01 13:57 51.91177 -8.07663 3165 ft 121 kts 73°
2026-05-01 13:58 51.91460 -8.06395 3298 ft 118 kts 83°
2026-05-01 13:58 51.91664 -8.05091 3427 ft 120 kts 81°
2026-05-01 13:58 51.91866 -8.03767 3495 ft 120 kts 83°
2026-05-01 13:58 51.92058 -8.02500 3474 ft 108 kts 84°
2026-05-01 13:59 51.92211 -8.01454 3458 ft 85 kts 82°
2026-05-01 13:59 51.92371 -8.00660 3294 ft 88 kts 80°
2026-05-01 13:59 51.92579 -7.99691 3495 ft 87 kts 79°
2026-05-01 13:59 51.92759 -7.98788 3560 ft 63 kts 76°
2026-05-01 14:00 51.92997 -7.97894 3429 ft 94 kts 81°
2026-05-01 14:00 51.93067 -7.97545 3513 ft 94 kts 81°
2026-05-01 14:01 51.93230 -7.96670 3603 ft 66 kts 83°
2026-05-01 14:01 51.93429 -7.95786 3477 ft 93 kts 75°
2026-05-01 14:01 51.93429 -7.94861 3481 ft 67 kts 143°
2026-05-01 14:01 51.93051 -7.94521 3504 ft 71 kts 163°
2026-05-01 14:02 51.92680 -7.94705 3418 ft 62 kts 246°
2026-05-01 14:02 51.92599 -7.95384 3516 ft 54 kts 245°
2026-05-01 14:02 51.92517 -7.95929 3408 ft 65 kts 246°
2026-05-01 14:02 51.92414 -7.96670 3522 ft 75 kts 248°
2026-05-01 14:03 51.92397 -7.97549 3553 ft 96 kts 316°
2026-05-01 14:03 51.92986 -7.97116 3497 ft 119 kts 76°
2026-05-01 14:03 51.93387 -7.96005 3540 ft 119 kts
2026-05-01 14:03 51.93683 -7.96709 3555 ft 92 kts 212°
2026-05-01 14:04 51.93311 -7.95998 3440 ft 124 kts 80°
2026-05-01 14:04 51.93498 -7.94714 3489 ft 116 kts 83°
2026-05-01 14:04 51.93687 -7.93457 3493 ft 114 kts 83°
2026-05-01 14:04 51.93875 -7.92225 3495 ft 112 kts 82°
2026-05-01 14:05 51.94070 -7.91004 3498 ft 111 kts 83°
2026-05-01 14:05 51.94262 -7.89795 3496 ft 111 kts 82°
2026-05-01 14:05 51.94458 -7.88588 3501 ft 111 kts 84°
2026-05-01 14:05 51.94657 -7.87375 3498 ft 111 kts 82°
2026-05-01 14:06 51.94851 -7.86160 3496 ft 112 kts 83°
2026-05-01 14:06 51.95074 -7.84949 3502 ft 110 kts 78°
2026-05-01 14:06 51.95593 -7.84004 3435 ft 120 kts 24°
2026-05-01 14:06 51.96372 -7.84005 3462 ft 112 kts 338°
2026-05-01 14:07 51.97112 -7.84379 3465 ft 109 kts 337°
2026-05-01 14:07 51.97807 -7.84873 3444 ft 108 kts 323°
2026-05-01 14:07 51.98480 -7.85418 3484 ft 108 kts 330°
2026-05-01 14:08 51.99894 -7.86347 3447 ft 111 kts 331°
2026-05-01 14:08 52.00643 -7.86740 3458 ft 112 kts 337°
2026-05-01 14:08 52.01375 -7.87134 3442 ft 114 kts 338°
2026-05-01 14:08 52.02110 -7.87564 3515 ft 107 kts 328°
2026-05-01 14:09 52.02815 -7.88058 3511 ft 112 kts 334°
2026-05-01 14:09 52.03501 -7.88540 3519 ft 112 kts 338°
2026-05-01 14:09 52.04262 -7.88863 3542 ft 109 kts 342°
2026-05-01 14:09 52.05015 -7.89179 3475 ft 116 kts 337°
2026-05-01 14:10 52.05772 -7.89548 3498 ft 111 kts 334°
2026-05-01 14:10 52.06474 -7.90087 3441 ft 112 kts 322°
2026-05-01 14:10 52.07187 -7.90626 3415 ft 108 kts 323°
2026-05-01 14:10 52.07854 -7.91170 3369 ft 112 kts 335°
2026-05-01 14:11 52.08567 -7.91598 3290 ft 113 kts 339°
2026-05-01 14:11 52.10116 -7.92140 3346 ft 113 kts 336°
2026-05-01 14:11 52.10860 -7.92550 3416 ft 118 kts 339°
2026-05-01 14:12 52.11653 -7.92866 3439 ft 117 kts 338°
2026-05-01 14:12 52.12413 -7.93226 3535 ft 114 kts 340°
2026-05-01 14:12 52.13190 -7.93532 3591 ft 115 kts 343°
2026-05-01 14:12 52.14019 -7.93815 3456 ft 126 kts 342°
2026-05-01 14:13 52.14873 -7.94184 3291 ft 134 kts 341°
2026-05-01 14:13 52.15399 -7.94395 3533 ft 91 kts 342°
2026-05-01 14:13 52.16204 -7.94651 3284 ft 83 kts 315°
2026-05-01 14:13 52.16661 -7.95230 3026 ft 89 kts 314°
2026-05-01 14:14 52.17178 -7.95782 2800 ft 84 kts 308°
2026-05-01 14:14 52.17626 -7.96403 2555 ft 85 kts 308°
2026-05-01 14:14 52.18018 -7.97153 2253 ft 90 kts 293°
2026-05-01 14:14 52.18179 -7.97979 2065 ft 69 kts 241°
2026-05-01 14:15 52.17873 -7.98401 1906 ft 57 kts 181°
2026-05-01 14:15 52.17491 -7.98201 1680 ft 60 kts 179°
2026-05-01 14:15 52.17066 -7.98117 1420 ft 62 kts 178°
2026-05-01 14:15 52.16635 -7.97984 1203 ft 61 kts 180°
2026-05-01 14:16 52.16227 -7.97896 998 ft 59 kts 177°
2026-05-01 14:16 52.15832 -7.97753 803 ft 58 kts 182°
2026-05-01 14:16 52.15650 -7.97748 615 ft 0 kts 181°